Find Local Weather

World > North America > United States > Montana

Thompson Falls, Montana Regional Weather

Lat: 47.60N, Lon: 115.34W
Wx Zone: MTZ004
Feedback
Expires:201807211000;;815093
ASUS45 KTFX 210910
RWRMT 
MONTANA REGIONAL WEATHER ROUNDUP
NATIONAL WEATHER SERVICE GREAT FALLS MT
300 AM MDT SAT JUL 21 2018

NOTE: "FAIR" INDICATES FEW OR NO CLOUDS BELOW 12000 FEET WITH NO
SIGNIFICANT WEATHER AND/OR OBSTRUCTIONS TO VISIBILITY.


MTZ001>007-043-211000-
WEST OF THE DIVIDE
  
CITY           SKY/WX    TMP DP  RH WIND       PRES   REMARKS
KALISPELL      FAIR      43  33  68 VRB3      30.01S                  
MISSOULA       FAIR      57  30  35 N3        30.04S                  
BUTTE          FAIR      61  30  31 E3        30.14R                  
MULLAN PASS    FAIR      52  25  35 SW7       30.14F                  
ANACONDA         N/A     55  34  44 SW3       30.11S                  
DEER LODGE       N/A     54  32  43 W5        30.12R                  
LIBBY            N/A     48  37  66 CALM      30.00S                  
PLAINS           N/A     46  33  60 CALM      30.04R                  
RONAN            N/A     45  39  81 E7        30.04S                  
$$


SKY/WX - Weather  TMP - Temperature  DP - Dewpoint  RH - Relative Humidity
WIND - Wind Direction/Speed PRES - Barometric Pressure